NOAA 1 1 04793U 70106A 25258.36816736 -.00000056 00000+0 -83065-4 0 9997 2 04793 101.3814 299.6104 0031770 164.9450 206.4941 12.54044997506249 NOAA 2 (ITOS-D) 1 06235U 72082A 25258.60332193 -.00000030 00000+0 10521-3 0 9999 2 06235 102.0240 269.0176 0003988 339.1925 134.3319 12.53204417420557 NOAA 3 1 06920U 73086A 25258.58533622 -.00000032 00000+0 10887-3 0 9999 2 06920 102.2933 264.8682 0006176 271.0573 201.8695 12.40385853347857 NOAA 4 1 07529U 74089A 25258.58232554 -.00000031 00000+0 96369-4 0 9998 2 07529 102.0084 263.4566 0009127 2.7613 113.8371 12.53196414325123 NOAA 5 1 09057U 76077A 25258.55527019 -.00000015 00000+0 23423-3 0 9997 2 09057 102.2697 238.3396 0009941 119.7920 1.8851 12.37821624220492 TIROS N 1 11060U 78096A 25258.55403372 .00000127 00000+0 80384-4 0 9995 2 11060 98.4822 286.7184 0009628 323.7838 36.2686 14.19232169639791 NOAA 6 1 11416U 79057A 25258.58071484 .00000253 00000+0 10397-3 0 9992 2 11416 98.5952 284.6526 0009749 359.4938 0.6236 14.35249077411562 NOAA 7 1 12553U 81059A 25258.42639755 .00000063 00000+0 52990-4 0 9999 2 12553 98.8346 322.6891 0010965 339.3064 20.7666 14.17724588285814 NOAA 8 1 13923U 83022A 25258.59568263 .00000135 00000+0 70323-4 0 9996 2 13923 98.7403 265.8331 0014518 346.2539 13.8246 14.29668790211831 NOAA 9 1 15427U 84123A 25258.61121366 .00000103 00000+0 74701-4 0 9991 2 15427 99.1224 273.5797 0015433 50.2186 59.2589 14.16956064104539 NOAA 10 1 16969U 86073A 25258.58792339 .00000139 00000+0 72537-4 0 9993 2 16969 98.6838 247.5280 0013237 80.0956 29.2281 14.29041950 30199 NOAA 11 1 19531U 88089A 25258.59197174 .00000060 00000+0 52085-4 0 9996 2 19531 98.5801 208.7952 0011341 12.2014 347.9433 14.15765612908621 NOAA 12 1 21263U 91032A 25258.56209412 .00000095 00000+0 57169-4 0 9995 2 21263 98.5973 246.5073 0014762 109.0909 251.1871 14.26637463785807 NOAA 13 1 22739U 93050A 25258.60805075 .00000086 00000+0 68387-4 0 9992 2 22739 98.6646 206.4913 0009139 186.4519 173.6538 14.13555286654586 NOAA 14 1 23455U 94089A 25258.55525328 .00000064 00000+0 54833-4 0 9992 2 23455 98.4755 236.3642 0010004 146.6894 213.4912 14.14603086584370 NOAA 15 1 25338U 98030A 25258.55462682 .00000110 00000+0 62775-4 0 9993 2 25338 98.5320 281.3124 0011412 74.4868 285.7572 14.27016238422128 NOAA 16 1 26536U 00055A 25258.58898466 .00000064 00000+0 55573-4 0 9996 2 26536 98.4847 282.1395 0010668 16.4787 343.6732 14.13831670584928 NOAA 17 1 27453U 02032A 25258.55750501 .00000204 00000+0 10433-3 0 9997 2 27453 98.8230 216.6474 0012720 69.2219 291.0322 14.26056005207843 NOAA 18 1 28654U 05018A 25258.36883741 .00000108 00000+0 80719-4 0 9998 2 28654 98.8368 336.7227 0013781 208.0265 152.0166 14.13637552 47483 NOAA 19 1 33591U 09005A 25258.60344788 .00000077 00000+0 65190-4 0 9995 2 33591 98.9886 323.8193 0014817 87.6474 272.6395 14.13406925855699 SUOMI NPP 1 37849U 11061A 25258.58650796 .00000095 00000+0 65939-4 0 9997 2 37849 98.7619 196.7875 0002298 60.4017 299.7388 14.19516583719483 NOAA 20 (JPSS-1) 1 43013U 17073A 25258.53121477 .00000070 00000+0 53884-4 0 9999 2 43013 98.7447 195.8583 0001540 47.0408 313.0897 14.19560222405501 NOAA 21 (JPSS-2) 1 54234U 22150A 25258.56725713 .00000078 00000+0 57558-4 0 9994 2 54234 98.7310 196.0385 0000530 227.3384 132.7748 14.19558942147582